Weather History for KFFT - March, 2014

Change the Weather History Date:

Wednesday, March 26, 2014

  Actual Average Record
Temperature  
Mean Temperature 28 °F 48 °F  
Max Temperature 42 °F 60 °F 85 °F (1929)
Min Temperature 14 °F 37 °F 11 °F (1974)
Degree Days  
Heating Degree Days 37 17  
Month to date heating degree days 666 548  
Since 1 July heating degree days 4778 4187  
Cooling Degree Days 0 0  
Month to date cooling degree days 0 0  
Year to date cooling degree days 0 0  
Moisture  
Dew Point 13 °F    
Average Humidity 59    
Maximum Humidity 88    
Minimum Humidity 29    
Precipitation  
Precipitation 0.00 in 0.14 in 3.35 in (1913)
Month to date precipitation 1.25 3.59  
Year to date precipitation 7.45 10.14  
Sea Level Pressure  
Sea Level Pressure 30.31 in    
Wind  
Wind Speed 4 mph (SSE)    
Max Wind Speed 12 mph    
Max Gust Speed 15 mph    
Visibility 10 miles    
Events      
T = Trace of Precipitation, MM = Missing Value Source: NWS Daily Summary

Daily Weather History Graph

Daily Weather History Graph

Search for Another Location

Airport or City:

Trip Planner

Search our weather history database for the weather conditions in past years. The results will help you decide how hot, cold, wet, or windy it might be!

Date:

Astronomy

Mar. 26, 2014 Rise Set
Actual Time 7:33 AM EDT 7:57 PM EDT
Civil Twilight 7:07 AM EDT 8:23 PM EDT
Nautical Twilight 6:36 AM EDT 8:54 PM EDT
Astronomical Twilight 6:04 AM EDT 9:26 PM EDT
Moon 4:38 AM EDT (3/26) 3:38 PM EDT (3/26)
Length of Visible Light 13h 16m
Length of Day
12h 23m
Waning Crescent, 22% of the Moon is Illuminated
Mar 26
Waning Crescent
Mar 30
New
Apr 7
First Quarter
Apr 15
Full
Apr 22
Last Quarter

Hourly Weather History & Observations

Time (EDT) Temp. Windchill Dew Point Humidity Pressure Visibility Wind Dir Wind Speed Gust Speed Precip Events Conditions
12:53 AM 25.0 °F - 14.0 °F 63% 30.24 in 10.0 mi Calm Calm - N/A   Partly Cloudy
1:53 AM 24.1 °F 19.7 °F 12.0 °F 60% 30.26 in 10.0 mi WNW 3.5 mph - N/A   Clear
2:53 AM 23.0 °F 17.0 °F 12.0 °F 63% 30.27 in 10.0 mi WNW 4.6 mph - N/A   Clear
3:53 AM 21.0 °F 14.6 °F 10.9 °F 65% 30.27 in 10.0 mi West 4.6 mph - N/A   Clear
4:53 AM 18.0 °F - 12.0 °F 78% 30.28 in 10.0 mi Calm Calm - N/A   Clear
5:53 AM 16.0 °F - 10.9 °F 81% 30.30 in 10.0 mi Calm Calm - N/A   Clear
6:53 AM 16.0 °F - 10.9 °F 81% 30.32 in 10.0 mi Calm Calm - N/A   Clear
7:53 AM 15.1 °F - 12.0 °F 88% 30.35 in 9.0 mi Calm Calm - N/A   Clear
8:53 AM 21.9 °F 17.2 °F 12.9 °F 68% 30.37 in 10.0 mi NNW 3.5 mph - N/A   Clear
9:53 AM 26.1 °F 20.5 °F 12.0 °F 55% 30.39 in 10.0 mi NNW 4.6 mph - N/A   Clear
10:53 AM 28.0 °F 24.2 °F 12.9 °F 53% 30.40 in 10.0 mi East 3.5 mph - N/A   Clear
11:53 AM 30.0 °F 25.2 °F 15.1 °F 54% 30.41 in 10.0 mi SSW 4.6 mph - N/A   Clear
12:53 PM 33.1 °F 30.0 °F 14.0 °F 46% 30.38 in 10.0 mi Variable 3.5 mph - N/A   Clear
1:53 PM 35.1 °F 31.0 °F 12.9 °F 40% 30.36 in 10.0 mi Variable 4.6 mph - N/A   Clear
2:53 PM 37.0 °F 33.3 °F 12.0 °F 36% 30.34 in 10.0 mi Variable 4.6 mph - N/A   Clear
3:53 PM 39.0 °F - 12.0 °F 33% 30.32 in 10.0 mi Calm Calm - N/A   Clear
4:53 PM 42.1 °F 38.4 °F 12.9 °F 31% 30.28 in 10.0 mi Variable 5.8 mph - N/A   Clear
5:53 PM 41.0 °F 38.0 °F 12.0 °F 31% 30.27 in 10.0 mi SSW 4.6 mph - N/A   Clear
6:53 PM 41.0 °F 34.7 °F 14.0 °F 33% 30.26 in 10.0 mi SE 10.4 mph - N/A   Clear
7:53 PM 37.0 °F 32.4 °F 14.0 °F 39% 30.27 in 10.0 mi SSE 5.8 mph - N/A   Clear
8:53 PM 34.0 °F 29.8 °F 15.1 °F 46% 30.26 in 10.0 mi SE 4.6 mph - N/A   Clear
9:53 PM 33.1 °F 27.7 °F 16.0 °F 50% 30.25 in 10.0 mi SE 5.8 mph - N/A   Clear
10:53 PM 33.1 °F 28.7 °F 15.1 °F 48% 30.27 in 10.0 mi SE 4.6 mph - N/A   Clear
11:53 PM 30.9 °F 25.2 °F 15.1 °F 52% 30.26 in 10.0 mi SE 5.8 mph - N/A   Clear